Regional Weather Roundup
Issued by NWS Cleveland, OH

Home | Current Version | Previous Version | Text Only | Print | Product List | Glossary Off
Versions: 1 2 3 4 5 6 7 8 9 10 11 12 13 14 15 16 17 18 19 20 21 22 23 24 25 26 27 28 29 30 31 32 33 34 35 36 37 38 39 40 41 42 43 44 45 46 47 48 49 50

000
ASUS41 KCLE 261410
RWRCLE
OHIO REGIONAL WEATHER ROUNDUP
NATIONAL WEATHER SERVICE WILMINGTON, OH
1000 AM EDT THU MAR 26 2015

NOTE: "FAIR" INDICATES FEW OR NO CLOUDS BELOW 12,000 FEET WITH NO
SIGNIFICANT WEATHER AND/OR OBSTRUCTIONS TO VISIBILITY.

OHZ001>008-015>018-024>027-034-035-043-044-261500-
   NORTHWEST OHIO

CITY           SKY/WX    TMP DP  RH WIND       PRES   REMARKS
DEFIANCE       SNOW      34  32  92 NW3       29.91F VSB 1/2
FINDLAY        LGT RAIN  38  35  89 N6        29.88S FOG
TOLEDO EXPRESS LGT SNOW  32  32 100 W3        29.90S VSB 3/4
TOLEDO EXEC    SNOW      33  31  92 NW3       29.90F VSB 1/2
LIMA           LGT RAIN  39  36  89 N7        29.88S FOG
$$

OHZ009>014-019>023-028>033-038-089-261500-
   NORTHEAST OHIO

CITY           SKY/WX    TMP DP  RH WIND       PRES   REMARKS
CLE-HOPKINS    LGT RAIN  37  35  92 N12       29.88F FOG
CLE-LAKEFRONT  LGT RAIN  36  34  92 N9        29.86F VSB 1
CUY CO. ARPT   LGT RAIN  37  37 100 NE9       29.87R FOG
LORAIN-ELYRIA  LGT RAIN  37  35  92 NE7       29.87F FOG
ASHTABULA      RAIN      35  33  92 N3        29.86F FOG
AKRON-CANTON   LGT RAIN  43  39  86 N12       29.81F FOG
WOOSTER        LGT RAIN  40  38  93 N8        29.84R FOG
MANSFIELD      LGT RAIN  39  39 100 N7        29.84R FOG
YOUNGSTOWN     RAIN      39  38  96 N8        29.83S FOG
$$

OHZ042-051>053-060>062-070>072-077>081-261500-
  SOUTHWEST OHIO

CITY           SKY/WX    TMP DP  RH WIND       PRES   REMARKS
CINC-COVINGTON RAIN      44  44 100 N9        29.86R FOG
CINC-LUNKEN    CLOUDY    45  43  93 NE3       29.86F
HAMILTON       LGT RAIN  44  44 100 VRB3      29.87F FOG
DAYTON         LGT RAIN  43  41  93 N9        29.87S FOG
WRIGHT-PAT AFB LGT RAIN  43  43 100 N7        29.86S
DAYTON GENERAL LGT RAIN  43  42  97 N10       29.84S FOG
WILMINGTON     LGT RAIN  43  41  93 N13       29.83F FOG
$$

OHZ036-037-039>041-045>050-054>059-063>069-073>076-082>088-261500-
  CENTRAL AND SOUTHEAST OHIO

CITY           SKY/WX    TMP DP  RH WIND       PRES   REMARKS
COLUMBUS       LGT RAIN  44  43  96 NW9       29.84R FOG
OSU AIRPORT    LGT RAIN  43  41  93 N9        29.84R FOG
BOLTON FIELD   LGT RAIN  43  41  93 NW8       29.85R FOG
RICKENBACK AFB RAIN      44  42  95 NW9       29.83R
NEWARK         RAIN      45  42  89 N7        29.82R FOG
MARION         LGT RAIN  40  38  93 N12       29.86R FOG
LANCASTER      LGT RAIN  46  44  93 N6        29.82S FOG
ZANESVILLE     LGT RAIN  44  42  93 N6        29.81S FOG
NEW PHILLY     RAIN      46  42  86 VRB3      29.81F FOG
$$



USA.gov is the U.S. government's official web portal to all federal, state and local government web resources and services.